GEFSNGP_prec_meanprecacc_240.txt.gz
Total_Precipitation_Accumulation
0.05 0.11 0.17 0.20 0.16 0.13 0.11 0.11 0.15 0.21 0.34 0.40 0.47 0.49 0.43 0.43 0.46 0.45 0.50 0.50 0.47 0.50 0.43 0.41 0.41 0.39 0.39 0.44 0.48 0.48 0.57 0.66 0.74 0.85 0.91 1.00 1.15 1.25 1.34 1.38 1.31 1.38 1.44 1.43
0.07 0.11 0.13 0.14 0.17 0.12 0.08 0.08 0.14 0.23 0.35 0.43 0.43 0.52 0.51 0.45 0.41 0.46 0.54 0.55 0.62 0.62 0.58 0.56 0.54 0.50 0.50 0.55 0.60 0.69 0.79 0.84 0.88 0.95 1.03 1.08 1.15 1.19 1.31 1.37 1.42 1.50 1.56 1.58
0.15 0.15 0.16 0.17 0.16 0.12 0.11 0.14 0.18 0.22 0.32 0.43 0.50 0.60 0.65 0.65 0.54 0.53 0.64 0.67 0.76 0.82 0.78 0.74 0.68 0.63 0.64 0.68 0.77 0.86 0.95 1.08 1.13 1.15 1.24 1.26 1.28 1.27 1.31 1.45 1.55 1.58 1.56 1.56
0.21 0.24 0.29 0.21 0.18 0.16 0.16 0.17 0.20 0.31 0.42 0.50 0.58 0.62 0.71 0.80 0.73 0.63 0.60 0.66 0.78 0.88 0.87 0.79 0.77 0.80 0.90 0.94 1.00 1.12 1.20 1.33 1.46 1.50 1.57 1.63 1.69 1.67 1.68 1.73 1.81 1.76 1.65 1.65
0.32 0.39 0.35 0.28 0.24 0.23 0.25 0.33 0.34 0.45 0.64 0.72 0.68 0.79 0.94 0.86 0.72 0.69 0.69 0.72 0.89 0.90 0.87 0.86 0.97 1.02 1.05 1.10 1.18 1.36 1.53 1.64 1.73 1.81 1.85 1.86 1.87 1.95 2.01 2.11 2.14 2.06 1.99 2.02
0.40 0.45 0.49 0.45 0.39 0.37 0.46 0.84 0.72 0.71 0.72 0.72 0.74 0.99 1.03 0.76 0.65 0.65 0.69 0.82 0.93 0.99 0.98 1.06 1.29 1.34 1.38 1.42 1.49 1.56 1.63 1.75 1.92 2.04 2.10 2.08 2.10 2.22 2.38 2.50 2.47 2.43 2.45 2.47
0.47 0.51 0.50 0.50 0.47 0.52 0.95 1.30 1.05 0.94 0.87 0.89 1.00 1.01 0.98 0.83 0.70 0.68 0.70 0.79 0.90 0.95 1.02 1.09 1.27 1.42 1.65 1.80 1.84 1.84 1.89 1.92 1.98 2.09 2.21 2.25 2.32 2.39 2.54 2.64 2.62 2.58 2.51 2.45
0.73 0.83 0.87 0.58 0.61 0.93 1.19 1.03 1.08 1.17 1.18 1.17 1.15 0.98 0.86 0.78 0.76 0.72 0.70 0.72 0.82 0.99 1.09 1.20 1.37 1.60 1.79 1.94 2.07 2.14 2.13 2.23 2.24 2.26 2.19 2.16 2.35 2.48 2.60 2.72 2.69 2.63 2.64 2.52
1.00 1.10 0.97 0.74 0.83 0.88 0.85 0.98 1.06 1.11 1.23 1.29 1.27 1.27 1.08 0.97 0.94 0.87 0.82 0.81 0.83 0.95 1.10 1.19 1.29 1.52 1.88 1.96 1.97 2.00 2.08 2.13 2.21 2.24 2.25 2.27 2.40 2.56 2.69 2.73 2.64 2.51 2.49 2.46
1.15 1.19 1.06 0.99 1.00 1.02 0.99 1.06 1.09 1.12 1.19 1.25 1.23 1.30 1.21 1.06 0.93 0.87 0.85 0.86 0.90 0.96 1.07 1.16 1.12 1.24 1.44 1.63 1.73 1.74 1.75 1.78 1.80 1.92 2.04 2.20 2.38 2.43 2.51 2.58 2.58 2.56 2.50 2.42
1.38 1.51 1.47 1.36 1.32 1.26 1.17 1.26 1.37 1.32 1.29 1.32 1.19 1.15 1.14 0.99 0.87 0.80 0.78 0.77 0.84 0.97 0.96 1.00 1.07 1.08 1.12 1.19 1.37 1.52 1.56 1.57 1.64 1.75 1.85 2.00 2.22 2.36 2.31 2.32 2.47 2.38 2.24 2.13
1.45 1.49 1.62 1.65 1.47 1.35 1.26 1.35 1.40 1.35 1.27 1.23 1.15 1.12 1.01 0.88 0.80 0.78 0.76 0.76 0.81 0.88 0.88 0.86 0.94 0.97 1.00 1.13 1.32 1.43 1.41 1.41 1.44 1.47 1.57 1.69 1.85 1.98 1.95 1.71 1.74 1.67 1.52 1.39
1.29 1.38 1.54 1.65 1.52 1.44 1.51 1.54 1.50 1.43 1.30 1.23 1.12 1.05 0.97 0.88 0.79 0.79 0.82 0.85 0.91 0.93 0.94 0.95 0.94 0.98 1.10 1.29 1.45 1.55 1.46 1.38 1.36 1.37 1.45 1.49 1.54 1.61 1.65 1.52 1.35 1.28 1.15 1.00
1.45 1.60 1.88 2.00 1.80 1.60 1.62 1.56 1.50 1.56 1.50 1.40 1.21 1.07 0.94 0.90 0.85 0.85 0.95 1.05 1.10 1.09 1.07 1.07 1.08 1.05 1.08 1.22 1.38 1.62 1.71 1.62 1.47 1.40 1.40 1.38 1.39 1.43 1.52 1.55 1.46 1.28 1.07 0.84
1.60 1.74 1.87 1.92 1.76 1.63 1.61 1.61 1.54 1.51 1.43 1.37 1.30 1.13 1.00 0.94 0.92 0.93 0.96 1.04 1.13 1.14 1.14 1.07 1.05 1.05 1.08 1.17 1.21 1.34 1.55 1.56 1.45 1.39 1.40 1.41 1.42 1.47 1.54 1.54 1.58 1.52 1.25 0.94
1.66 1.71 1.81 1.76 1.67 1.60 1.53 1.59 1.59 1.44 1.25 1.24 1.26 1.18 1.12 0.99 0.95 0.95 1.00 1.15 1.33 1.34 1.21 1.14 1.10 1.06 1.05 1.08 1.10 1.17 1.26 1.29 1.23 1.24 1.25 1.31 1.36 1.38 1.40 1.47 1.49 1.47 1.32 1.05
1.52 1.65 1.79 1.80 1.69 1.53 1.49 1.57 1.52 1.39 1.20 1.08 1.15 1.14 1.10 1.08 1.09 1.11 1.16 1.24 1.39 1.41 1.28 1.21 1.16 1.05 0.98 1.00 1.07 1.08 1.09 1.05 0.98 1.02 1.13 1.20 1.25 1.27 1.26 1.27 1.29 1.29 1.21 0.93
1.24 1.38 1.46 1.49 1.52 1.44 1.38 1.38 1.34 1.28 1.22 1.12 1.13 1.14 1.10 1.16 1.26 1.35 1.40 1.40 1.38 1.28 1.18 1.12 1.05 1.01 0.94 0.91 0.98 1.03 1.09 1.03 0.87 0.88 1.03 1.09 1.09 1.17 1.15 1.12 1.12 1.15 1.06 0.83
1.17 1.24 1.22 1.23 1.21 1.20 1.21 1.22 1.13 1.07 1.08 1.11 1.14 1.18 1.16 1.19 1.30 1.37 1.36 1.45 1.50 1.37 1.13 0.95 0.86 0.75 0.72 0.68 0.69 0.81 0.93 0.96 0.85 0.83 0.93 0.92 0.96 1.14 1.17 1.15 1.14 1.12 0.98 0.87
1.09 1.16 1.21 1.16 1.06 1.08 1.07 1.09 1.07 1.04 1.03 1.10 1.17 1.16 1.17 1.21 1.28 1.37 1.34 1.35 1.41 1.36 1.13 0.91 0.70 0.59 0.53 0.51 0.54 0.59 0.71 0.81 0.75 0.70 0.75 0.85 0.95 1.10 1.19 1.16 1.16 1.16 1.04 0.93
1.02 1.07 1.07 1.06 1.02 1.01 1.00 0.94 0.95 1.03 1.04 1.06 1.15 1.20 1.28 1.26 1.21 1.27 1.39 1.40 1.30 1.26 1.18 1.05 0.80 0.65 0.52 0.51 0.51 0.55 0.66 0.75 0.69 0.61 0.63 0.73 0.89 1.04 1.12 1.10 1.08 1.05 0.96 0.88
1.02 1.00 0.93 0.93 0.93 0.94 0.96 0.94 0.87 0.83 0.86 0.98 1.06 1.13 1.24 1.23 1.17 1.16 1.17 1.29 1.26 1.31 1.17 1.03 0.88 0.75 0.63 0.53 0.47 0.52 0.63 0.70 0.68 0.60 0.58 0.67 0.83 0.94 1.02 1.06 1.07 1.03 0.97 0.94
1.12 1.04 0.96 0.94 0.88 0.86 0.86 0.87 0.82 0.78 0.90 1.07 1.10 1.15 1.21 1.15 1.15 1.26 1.21 1.04 1.03 1.14 0.99 0.89 0.91 0.81 0.67 0.57 0.51 0.56 0.68 0.75 0.74 0.64 0.62 0.70 0.78 0.82 0.89 0.92 0.95 0.98 0.99 0.92
1.11 0.99 0.96 0.99 0.92 0.89 0.96 0.87 0.79 0.84 0.95 1.09 1.07 1.08 1.11 1.12 1.11 1.07 1.06 1.03 0.99 1.04 0.89 0.83 0.79 0.73 0.69 0.66 0.67 0.70 0.75 0.77 0.75 0.66 0.63 0.67 0.68 0.71 0.78 0.87 0.95 1.00 0.97 0.90
1.04 0.96 0.92 1.01 1.03 0.98 1.03 0.93 0.87 0.94 0.98 1.05 1.00 1.00 1.04 1.04 1.15 1.16 1.04 0.94 0.98 1.01 0.92 0.87 0.79 0.73 0.68 0.74 0.82 0.82 0.80 0.79 0.77 0.71 0.69 0.67 0.67 0.70 0.78 0.92 1.02 1.03 0.95 0.93
1.04 1.03 0.98 1.00 0.98 0.93 0.93 0.88 0.85 0.90 1.06 1.22 1.11 1.00 1.07 1.05 1.01 1.05 1.09 1.03 1.00 1.03 0.98 0.91 0.83 0.79 0.77 0.86 0.93 0.92 0.86 0.83 0.81 0.80 0.81 0.81 0.82 0.85 0.93 1.04 1.07 0.99 0.89 0.84
0.97 0.92 0.88 0.87 0.90 0.93 0.94 0.89 0.84 0.89 1.03 1.27 1.24 1.00 0.99 0.99 0.99 1.02 1.06 1.11 1.07 1.05 1.02 0.93 0.84 0.78 0.78 0.84 0.87 0.85 0.82 0.81 0.81 0.79 0.77 0.79 0.80 0.85 0.86 0.92 0.92 0.85 0.80 0.74

GEFSNGP_prec_meanprecacc_246.txt.gz
Total_Precipitation_Accumulation
0.06 0.12 0.18 0.20 0.17 0.14 0.11 0.12 0.17 0.22 0.35 0.43 0.50 0.52 0.46 0.46 0.49 0.47 0.52 0.52 0.49 0.52 0.46 0.45 0.46 0.45 0.48 0.52 0.51 0.50 0.62 0.70 0.77 0.89 0.97 1.05 1.19 1.29 1.38 1.42 1.35 1.41 1.46 1.45
0.07 0.12 0.13 0.15 0.18 0.13 0.09 0.09 0.14 0.24 0.38 0.45 0.46 0.55 0.55 0.49 0.44 0.48 0.56 0.57 0.64 0.65 0.61 0.61 0.60 0.55 0.56 0.60 0.62 0.72 0.82 0.89 0.94 1.01 1.08 1.12 1.19 1.23 1.35 1.40 1.45 1.53 1.58 1.60
0.15 0.16 0.17 0.18 0.17 0.13 0.12 0.15 0.19 0.24 0.38 0.48 0.53 0.64 0.70 0.71 0.58 0.56 0.67 0.70 0.79 0.84 0.82 0.81 0.75 0.69 0.68 0.72 0.80 0.90 1.01 1.14 1.19 1.22 1.30 1.32 1.34 1.33 1.36 1.49 1.59 1.61 1.59 1.58
0.21 0.25 0.31 0.23 0.19 0.17 0.16 0.18 0.21 0.33 0.46 0.57 0.65 0.67 0.76 0.86 0.77 0.67 0.64 0.70 0.82 0.92 0.93 0.83 0.81 0.84 0.93 0.97 1.04 1.15 1.25 1.38 1.51 1.57 1.64 1.68 1.74 1.72 1.74 1.78 1.86 1.81 1.70 1.68
0.33 0.40 0.36 0.30 0.26 0.24 0.26 0.35 0.36 0.47 0.68 0.78 0.78 0.85 0.99 0.91 0.78 0.75 0.76 0.78 0.94 0.95 0.91 0.90 1.01 1.05 1.07 1.13 1.20 1.38 1.56 1.68 1.78 1.85 1.89 1.89 1.90 2.00 2.07 2.18 2.20 2.10 2.03 2.06
0.41 0.47 0.52 0.48 0.41 0.38 0.48 0.89 0.76 0.74 0.76 0.75 0.80 1.05 1.08 0.82 0.71 0.72 0.74 0.87 1.00 1.04 1.01 1.08 1.32 1.37 1.40 1.44 1.52 1.59 1.65 1.77 1.95 2.06 2.11 2.10 2.11 2.25 2.41 2.53 2.50 2.47 2.49 2.51
0.48 0.54 0.57 0.54 0.48 0.54 0.99 1.38 1.15 1.02 0.96 0.95 1.09 1.08 1.07 0.91 0.76 0.74 0.74 0.82 0.95 1.00 1.04 1.11 1.30 1.45 1.69 1.83 1.86 1.86 1.90 1.93 1.99 2.11 2.23 2.26 2.33 2.39 2.56 2.66 2.64 2.60 2.55 2.50
0.75 0.87 0.92 0.61 0.62 0.95 1.23 1.08 1.18 1.29 1.30 1.26 1.23 1.06 0.94 0.87 0.82 0.76 0.75 0.79 0.89 1.05 1.13 1.22 1.39 1.63 1.81 1.97 2.10 2.16 2.14 2.24 2.25 2.27 2.20 2.17 2.36 2.50 2.62 2.75 2.72 2.66 2.68 2.56
1.04 1.16 1.03 0.78 0.86 0.92 0.89 1.02 1.13 1.21 1.34 1.38 1.34 1.34 1.15 1.05 0.99 0.91 0.86 0.84 0.89 1.00 1.13 1.22 1.32 1.54 1.90 1.98 1.99 2.02 2.09 2.14 2.22 2.25 2.27 2.28 2.41 2.57 2.71 2.74 2.67 2.54 2.52 2.49
1.21 1.26 1.13 1.04 1.05 1.06 1.04 1.10 1.13 1.16 1.24 1.32 1.31 1.37 1.28 1.13 1.00 0.92 0.87 0.88 0.92 0.99 1.10 1.19 1.15 1.26 1.45 1.65 1.75 1.76 1.77 1.81 1.83 1.94 2.07 2.22 2.40 2.45 2.53 2.59 2.60 2.57 2.53 2.44
1.44 1.58 1.54 1.44 1.39 1.31 1.22 1.31 1.42 1.36 1.33 1.37 1.27 1.22 1.19 1.02 0.92 0.86 0.84 0.81 0.86 0.99 0.99 1.03 1.10 1.10 1.14 1.21 1.39 1.55 1.58 1.60 1.68 1.78 1.89 2.04 2.25 2.39 2.34 2.35 2.51 2.41 2.27 2.16
1.50 1.56 1.71 1.73 1.53 1.40 1.31 1.43 1.46 1.42 1.33 1.28 1.22 1.19 1.07 0.93 0.85 0.83 0.81 0.82 0.85 0.91 0.92 0.92 0.99 1.00 1.03 1.16 1.34 1.45 1.43 1.44 1.47 1.51 1.60 1.73 1.89 2.01 1.99 1.75 1.78 1.70 1.55 1.41
1.34 1.45 1.62 1.74 1.58 1.49 1.55 1.58 1.56 1.50 1.36 1.28 1.19 1.13 1.02 0.93 0.85 0.85 0.89 0.93 0.97 0.99 1.01 1.02 1.00 1.04 1.15 1.32 1.48 1.56 1.47 1.40 1.39 1.40 1.48 1.52 1.56 1.63 1.67 1.53 1.37 1.30 1.16 1.02
1.50 1.66 1.95 2.09 1.87 1.64 1.66 1.62 1.56 1.61 1.56 1.45 1.29 1.13 1.00 0.94 0.90 0.94 1.04 1.13 1.18 1.18 1.17 1.18 1.18 1.14 1.15 1.27 1.42 1.65 1.72 1.64 1.49 1.43 1.43 1.40 1.40 1.45 1.54 1.57 1.48 1.29 1.09 0.87
1.65 1.80 1.94 1.98 1.81 1.67 1.66 1.65 1.59 1.56 1.47 1.42 1.36 1.18 1.05 0.97 0.96 0.99 1.04 1.12 1.20 1.23 1.26 1.20 1.17 1.16 1.18 1.25 1.28 1.39 1.58 1.59 1.48 1.42 1.44 1.45 1.46 1.51 1.58 1.58 1.61 1.54 1.28 0.99
1.70 1.77 1.88 1.84 1.74 1.64 1.57 1.62 1.61 1.46 1.27 1.28 1.29 1.21 1.15 1.03 0.99 0.98 1.05 1.23 1.42 1.41 1.28 1.23 1.19 1.14 1.12 1.14 1.17 1.24 1.31 1.33 1.28 1.29 1.29 1.36 1.41 1.43 1.45 1.51 1.52 1.49 1.35 1.09
1.55 1.72 1.88 1.89 1.76 1.58 1.53 1.60 1.55 1.42 1.23 1.11 1.18 1.17 1.13 1.11 1.12 1.14 1.20 1.30 1.46 1.47 1.32 1.25 1.21 1.11 1.03 1.04 1.12 1.12 1.14 1.11 1.04 1.08 1.18 1.25 1.30 1.33 1.31 1.31 1.33 1.32 1.24 0.96
1.29 1.45 1.54 1.58 1.59 1.49 1.41 1.40 1.36 1.30 1.24 1.15 1.15 1.16 1.12 1.17 1.28 1.37 1.43 1.45 1.43 1.32 1.21 1.15 1.08 1.03 0.96 0.94 1.01 1.06 1.12 1.08 0.93 0.94 1.09 1.15 1.15 1.22 1.19 1.16 1.16 1.18 1.09 0.87
1.21 1.28 1.26 1.28 1.26 1.26 1.27 1.25 1.15 1.09 1.08 1.11 1.14 1.19 1.17 1.20 1.31 1.38 1.38 1.48 1.54 1.42 1.17 0.98 0.90 0.78 0.74 0.69 0.71 0.83 0.96 1.00 0.89 0.87 0.98 0.99 1.02 1.18 1.23 1.20 1.19 1.17 1.03 0.92
1.12 1.19 1.23 1.18 1.08 1.11 1.11 1.11 1.09 1.06 1.05 1.11 1.18 1.16 1.17 1.22 1.29 1.39 1.40 1.41 1.46 1.41 1.18 0.95 0.74 0.63 0.55 0.52 0.55 0.61 0.73 0.84 0.79 0.73 0.79 0.89 1.00 1.15 1.25 1.22 1.21 1.22 1.11 1.00
1.04 1.10 1.09 1.07 1.03 1.03 1.02 0.97 0.96 1.04 1.06 1.08 1.15 1.20 1.28 1.27 1.23 1.30 1.45 1.49 1.36 1.31 1.23 1.11 0.85 0.68 0.55 0.53 0.53 0.56 0.69 0.79 0.72 0.65 0.66 0.77 0.92 1.06 1.14 1.13 1.11 1.09 1.01 0.93
1.04 1.02 0.95 0.94 0.94 0.96 0.98 0.96 0.88 0.84 0.87 0.99 1.07 1.13 1.25 1.23 1.19 1.20 1.22 1.35 1.33 1.35 1.20 1.05 0.90 0.77 0.65 0.55 0.49 0.54 0.66 0.75 0.74 0.65 0.62 0.71 0.87 0.98 1.05 1.09 1.11 1.06 1.01 0.98
1.15 1.06 0.98 0.95 0.89 0.88 0.87 0.88 0.83 0.79 0.92 1.09 1.12 1.16 1.22 1.17 1.19 1.30 1.25 1.08 1.05 1.16 1.00 0.90 0.92 0.82 0.68 0.58 0.54 0.60 0.72 0.79 0.78 0.69 0.66 0.75 0.84 0.89 0.96 0.98 1.01 1.03 1.04 0.97
1.14 1.02 0.99 1.02 0.95 0.91 0.99 0.90 0.82 0.87 0.99 1.13 1.11 1.10 1.13 1.14 1.13 1.09 1.07 1.03 1.00 1.04 0.89 0.83 0.80 0.74 0.70 0.67 0.69 0.73 0.78 0.81 0.79 0.70 0.68 0.71 0.73 0.77 0.84 0.92 1.01 1.07 1.03 0.96
1.08 1.00 0.95 1.05 1.08 1.03 1.07 0.96 0.91 0.99 1.03 1.09 1.02 1.02 1.05 1.06 1.18 1.18 1.06 0.96 0.99 1.02 0.93 0.88 0.80 0.75 0.70 0.76 0.84 0.85 0.83 0.83 0.82 0.75 0.73 0.72 0.73 0.76 0.84 0.98 1.09 1.09 1.01 0.99
1.07 1.06 1.01 1.03 1.02 0.96 0.95 0.90 0.87 0.92 1.08 1.24 1.12 1.01 1.08 1.08 1.04 1.10 1.12 1.05 1.02 1.04 1.00 0.93 0.85 0.81 0.80 0.91 0.98 0.96 0.91 0.87 0.85 0.84 0.85 0.86 0.87 0.90 0.98 1.10 1.13 1.05 0.96 0.92
0.99 0.94 0.90 0.89 0.92 0.94 0.95 0.90 0.86 0.90 1.04 1.28 1.25 1.02 1.00 1.00 1.01 1.10 1.11 1.12 1.08 1.07 1.05 0.96 0.87 0.81 0.82 0.88 0.90 0.88 0.85 0.84 0.84 0.83 0.81 0.83 0.86 0.92 0.93 0.99 0.99 0.91 0.86 0.79

GEFSNGP_prec_meanprecacc_252.txt.gz
Total_Precipitation_Accumulation
0.06 0.12 0.18 0.20 0.17 0.14 0.12 0.12 0.17 0.23 0.35 0.43 0.50 0.52 0.46 0.47 0.49 0.48 0.53 0.53 0.51 0.54 0.48 0.46 0.47 0.46 0.49 0.53 0.52 0.51 0.64 0.72 0.79 0.92 1.00 1.09 1.22 1.32 1.42 1.44 1.37 1.43 1.49 1.48
0.07 0.12 0.14 0.15 0.18 0.13 0.09 0.09 0.14 0.24 0.38 0.46 0.47 0.56 0.56 0.50 0.45 0.49 0.56 0.58 0.66 0.66 0.62 0.62 0.61 0.56 0.57 0.62 0.64 0.75 0.87 0.93 0.98 1.05 1.13 1.16 1.23 1.28 1.41 1.45 1.49 1.57 1.62 1.65
0.15 0.16 0.17 0.18 0.17 0.13 0.12 0.15 0.19 0.25 0.38 0.48 0.54 0.64 0.71 0.72 0.59 0.56 0.67 0.71 0.82 0.87 0.85 0.83 0.76 0.70 0.70 0.74 0.83 0.95 1.08 1.24 1.28 1.28 1.33 1.36 1.38 1.39 1.42 1.55 1.65 1.67 1.63 1.62
0.21 0.25 0.31 0.23 0.19 0.17 0.16 0.18 0.21 0.33 0.46 0.58 0.66 0.67 0.77 0.87 0.78 0.67 0.66 0.72 0.86 0.97 0.98 0.89 0.87 0.88 0.95 1.00 1.08 1.21 1.30 1.43 1.56 1.61 1.67 1.72 1.78 1.76 1.77 1.81 1.89 1.83 1.72 1.71
0.33 0.40 0.37 0.31 0.27 0.24 0.26 0.35 0.36 0.47 0.68 0.78 0.79 0.86 1.00 0.93 0.80 0.77 0.79 0.82 0.99 1.01 0.99 0.98 1.08 1.12 1.13 1.19 1.26 1.44 1.60 1.71 1.81 1.88 1.91 1.91 1.92 2.02 2.10 2.20 2.21 2.11 2.05 2.08
0.41 0.47 0.52 0.48 0.41 0.39 0.48 0.89 0.76 0.75 0.76 0.77 0.81 1.07 1.09 0.83 0.74 0.75 0.80 0.95 1.07 1.11 1.10 1.16 1.39 1.43 1.46 1.51 1.58 1.65 1.70 1.80 1.96 2.07 2.13 2.11 2.13 2.27 2.43 2.55 2.52 2.49 2.50 2.53
0.49 0.54 0.58 0.55 0.49 0.55 1.00 1.40 1.17 1.04 0.98 0.98 1.12 1.11 1.09 0.94 0.80 0.78 0.81 0.90 1.03 1.07 1.11 1.18 1.38 1.54 1.76 1.91 1.93 1.92 1.96 1.98 2.02 2.13 2.25 2.29 2.35 2.41 2.57 2.68 2.66 2.62 2.57 2.52
0.76 0.88 0.94 0.62 0.64 0.97 1.26 1.10 1.20 1.33 1.35 1.29 1.26 1.09 0.97 0.91 0.87 0.80 0.80 0.84 0.95 1.10 1.17 1.27 1.44 1.69 1.89 2.04 2.16 2.23 2.20 2.28 2.28 2.29 2.22 2.20 2.38 2.52 2.64 2.77 2.73 2.68 2.69 2.57
1.05 1.17 1.05 0.80 0.88 0.94 0.92 1.05 1.16 1.25 1.37 1.42 1.39 1.38 1.18 1.07 1.03 0.95 0.89 0.87 0.92 1.02 1.16 1.27 1.36 1.58 1.94 2.03 2.05 2.07 2.14 2.17 2.24 2.26 2.28 2.29 2.43 2.59 2.73 2.77 2.68 2.55 2.53 2.50
1.23 1.30 1.17 1.08 1.08 1.09 1.06 1.13 1.16 1.21 1.28 1.35 1.35 1.43 1.31 1.16 1.03 0.95 0.90 0.90 0.95 1.01 1.13 1.22 1.18 1.30 1.49 1.69 1.80 1.81 1.80 1.83 1.84 1.96 2.08 2.24 2.42 2.48 2.56 2.63 2.63 2.60 2.55 2.47
1.47 1.63 1.60 1.48 1.44 1.36 1.27 1.35 1.46 1.41 1.38 1.41 1.31 1.28 1.25 1.07 0.96 0.90 0.88 0.84 0.90 1.02 1.02 1.06 1.13 1.14 1.17 1.24 1.44 1.59 1.61 1.63 1.69 1.79 1.90 2.07 2.29 2.43 2.38 2.40 2.56 2.46 2.31 2.20
1.53 1.59 1.74 1.77 1.58 1.45 1.36 1.47 1.51 1.46 1.37 1.32 1.27 1.24 1.13 0.99 0.90 0.88 0.86 0.85 0.89 0.95 0.95 0.95 1.02 1.04 1.08 1.20 1.39 1.49 1.45 1.46 1.49 1.52 1.62 1.75 1.92 2.04 2.02 1.80 1.83 1.74 1.58 1.44
1.37 1.48 1.65 1.79 1.65 1.56 1.62 1.63 1.60 1.55 1.41 1.32 1.23 1.17 1.06 0.98 0.91 0.91 0.95 0.98 1.02 1.05 1.05 1.05 1.04 1.09 1.20 1.37 1.53 1.62 1.52 1.44 1.42 1.43 1.50 1.55 1.59 1.65 1.70 1.56 1.39 1.32 1.18 1.04
1.52 1.70 2.00 2.15 1.97 1.72 1.73 1.68 1.61 1.66 1.60 1.50 1.34 1.17 1.03 0.97 0.93 0.97 1.08 1.18 1.23 1.23 1.22 1.22 1.23 1.21 1.22 1.34 1.50 1.74 1.79 1.72 1.57 1.49 1.48 1.43 1.44 1.48 1.58 1.59 1.49 1.30 1.10 0.89
1.68 1.84 1.99 2.04 1.86 1.72 1.70 1.70 1.63 1.59 1.51 1.48 1.43 1.26 1.10 1.00 0.99 1.02 1.07 1.17 1.23 1.27 1.30 1.25 1.22 1.22 1.26 1.33 1.37 1.50 1.68 1.66 1.56 1.52 1.52 1.50 1.50 1.54 1.61 1.61 1.63 1.56 1.30 1.02
1.73 1.81 1.92 1.87 1.77 1.67 1.59 1.64 1.63 1.48 1.31 1.32 1.34 1.27 1.20 1.06 1.01 1.01 1.08 1.27 1.45 1.44 1.33 1.29 1.26 1.21 1.19 1.20 1.22 1.30 1.39 1.42 1.35 1.36 1.37 1.44 1.47 1.47 1.48 1.54 1.55 1.52 1.37 1.12
1.59 1.76 1.92 1.93 1.78 1.61 1.54 1.62 1.56 1.43 1.26 1.14 1.22 1.21 1.17 1.13 1.14 1.17 1.24 1.33 1.49 1.53 1.39 1.33 1.29 1.19 1.10 1.10 1.17 1.17 1.21 1.19 1.12 1.16 1.24 1.31 1.36 1.36 1.34 1.33 1.35 1.34 1.26 0.99
1.32 1.48 1.58 1.62 1.62 1.52 1.44 1.42 1.39 1.32 1.27 1.18 1.18 1.20 1.15 1.20 1.31 1.41 1.47 1.48 1.48 1.40 1.28 1.21 1.14 1.08 1.02 0.99 1.05 1.09 1.16 1.12 0.98 1.01 1.17 1.22 1.21 1.26 1.22 1.18 1.19 1.21 1.12 0.89
1.25 1.31 1.29 1.31 1.30 1.29 1.29 1.27 1.17 1.11 1.12 1.14 1.17 1.21 1.18 1.22 1.34 1.41 1.41 1.51 1.57 1.46 1.21 1.02 0.93 0.79 0.76 0.72 0.72 0.85 0.98 1.02 0.92 0.92 1.05 1.06 1.09 1.24 1.27 1.25 1.24 1.22 1.08 0.96
1.16 1.23 1.26 1.20 1.09 1.13 1.12 1.13 1.10 1.07 1.07 1.14 1.20 1.17 1.18 1.22 1.30 1.40 1.42 1.42 1.46 1.42 1.21 1.00 0.78 0.64 0.57 0.54 0.56 0.62 0.75 0.86 0.82 0.77 0.83 0.93 1.03 1.18 1.28 1.25 1.25 1.27 1.18 1.06
1.09 1.13 1.12 1.09 1.05 1.05 1.03 0.98 0.97 1.05 1.08 1.09 1.16 1.21 1.28 1.27 1.23 1.31 1.45 1.50 1.38 1.33 1.24 1.13 0.87 0.70 0.58 0.56 0.55 0.58 0.71 0.82 0.76 0.69 0.69 0.79 0.93 1.08 1.15 1.15 1.13 1.12 1.04 0.96
1.09 1.06 0.98 0.96 0.96 0.98 0.99 0.97 0.89 0.86 0.89 1.00 1.08 1.14 1.26 1.25 1.21 1.21 1.24 1.38 1.36 1.39 1.23 1.07 0.92 0.79 0.68 0.59 0.52 0.56 0.68 0.77 0.76 0.67 0.65 0.73 0.90 1.00 1.07 1.11 1.13 1.09 1.03 1.00
1.18 1.09 1.00 0.97 0.91 0.90 0.89 0.90 0.86 0.81 0.93 1.11 1.14 1.17 1.23 1.18 1.21 1.32 1.27 1.10 1.07 1.18 1.02 0.92 0.94 0.83 0.69 0.60 0.56 0.61 0.73 0.80 0.80 0.70 0.68 0.77 0.86 0.91 0.98 1.01 1.05 1.08 1.08 1.00
1.18 1.05 1.01 1.03 0.96 0.93 1.01 0.94 0.85 0.89 1.01 1.14 1.12 1.11 1.14 1.14 1.13 1.09 1.08 1.04 1.01 1.05 0.90 0.84 0.80 0.75 0.70 0.67 0.70 0.73 0.79 0.82 0.80 0.71 0.69 0.73 0.75 0.78 0.86 0.95 1.04 1.10 1.07 1.00
1.11 1.02 0.98 1.07 1.11 1.05 1.09 0.98 0.93 1.00 1.04 1.10 1.03 1.03 1.06 1.06 1.18 1.18 1.07 0.96 1.00 1.02 0.93 0.89 0.81 0.76 0.71 0.77 0.85 0.86 0.84 0.85 0.83 0.76 0.74 0.73 0.74 0.77 0.86 1.01 1.12 1.13 1.06 1.04
1.11 1.09 1.04 1.06 1.04 0.98 0.97 0.91 0.88 0.93 1.09 1.24 1.13 1.03 1.10 1.09 1.06 1.11 1.13 1.06 1.03 1.05 1.01 0.95 0.86 0.82 0.81 0.92 0.98 0.97 0.91 0.88 0.85 0.84 0.85 0.86 0.87 0.91 0.99 1.11 1.14 1.07 0.99 0.94
1.02 0.98 0.94 0.92 0.94 0.96 0.97 0.91 0.87 0.91 1.05 1.28 1.25 1.03 1.01 1.02 1.03 1.10 1.12 1.13 1.09 1.08 1.06 0.97 0.88 0.82 0.83 0.89 0.91 0.88 0.85 0.84 0.85 0.83 0.82 0.84 0.87 0.92 0.93 1.00 1.00 0.94 0.89 0.83

GEFSNGP_prec_meanprecacc_258.txt.gz
Total_Precipitation_Accumulation
0.06 0.12 0.18 0.20 0.17 0.14 0.12 0.12 0.17 0.23 0.35 0.43 0.50 0.52 0.46 0.47 0.50 0.50 0.54 0.53 0.51 0.55 0.49 0.47 0.48 0.47 0.51 0.53 0.52 0.51 0.64 0.73 0.81 0.95 1.03 1.11 1.25 1.35 1.44 1.46 1.39 1.46 1.53 1.51
0.07 0.12 0.14 0.15 0.18 0.13 0.09 0.09 0.14 0.24 0.38 0.46 0.47 0.56 0.56 0.51 0.47 0.50 0.57 0.59 0.66 0.67 0.63 0.63 0.61 0.57 0.58 0.63 0.65 0.75 0.88 0.95 1.01 1.08 1.16 1.19 1.25 1.29 1.42 1.47 1.53 1.63 1.67 1.69
0.15 0.16 0.17 0.18 0.17 0.13 0.12 0.15 0.19 0.25 0.38 0.48 0.54 0.64 0.71 0.72 0.60 0.57 0.68 0.72 0.82 0.87 0.85 0.84 0.78 0.72 0.72 0.76 0.85 0.99 1.13 1.30 1.33 1.31 1.36 1.37 1.39 1.39 1.43 1.58 1.68 1.71 1.68 1.69
0.21 0.25 0.31 0.23 0.19 0.17 0.16 0.18 0.21 0.33 0.46 0.58 0.66 0.67 0.77 0.88 0.79 0.68 0.66 0.73 0.87 0.98 0.98 0.90 0.90 0.93 1.02 1.05 1.11 1.24 1.34 1.48 1.60 1.63 1.69 1.73 1.79 1.77 1.79 1.83 1.92 1.87 1.78 1.78
0.34 0.40 0.37 0.31 0.27 0.24 0.26 0.35 0.36 0.47 0.68 0.78 0.79 0.87 1.01 0.94 0.82 0.78 0.80 0.83 1.00 1.01 0.99 0.98 1.10 1.16 1.18 1.23 1.29 1.46 1.62 1.74 1.84 1.90 1.93 1.94 1.94 2.03 2.11 2.22 2.24 2.14 2.08 2.10
0.42 0.48 0.52 0.49 0.41 0.39 0.49 0.90 0.76 0.75 0.76 0.77 0.82 1.08 1.11 0.85 0.76 0.77 0.81 0.96 1.08 1.12 1.10 1.17 1.40 1.46 1.49 1.54 1.60 1.67 1.72 1.84 2.02 2.13 2.18 2.15 2.16 2.30 2.44 2.56 2.53 2.51 2.52 2.55
0.50 0.56 0.58 0.56 0.49 0.55 1.01 1.41 1.17 1.05 0.98 0.98 1.13 1.13 1.10 0.95 0.82 0.79 0.82 0.92 1.05 1.09 1.12 1.20 1.40 1.56 1.78 1.93 1.95 1.93 1.98 2.02 2.06 2.18 2.33 2.36 2.42 2.47 2.61 2.71 2.69 2.65 2.59 2.54
0.77 0.90 0.94 0.62 0.64 0.97 1.26 1.11 1.21 1.33 1.36 1.31 1.29 1.11 0.99 0.92 0.89 0.84 0.83 0.88 1.00 1.15 1.21 1.30 1.46 1.71 1.91 2.07 2.20 2.26 2.23 2.32 2.32 2.31 2.25 2.23 2.43 2.57 2.68 2.80 2.76 2.71 2.72 2.59
1.06 1.18 1.06 0.81 0.89 0.95 0.93 1.06 1.17 1.26 1.39 1.45 1.41 1.40 1.21 1.12 1.09 1.02 0.93 0.91 0.97 1.07 1.21 1.30 1.39 1.60 1.96 2.07 2.09 2.11 2.17 2.20 2.27 2.29 2.29 2.30 2.44 2.60 2.75 2.78 2.70 2.57 2.56 2.52
1.24 1.31 1.18 1.09 1.09 1.10 1.08 1.15 1.18 1.23 1.31 1.38 1.39 1.46 1.36 1.22 1.11 1.03 0.98 0.96 1.00 1.06 1.16 1.25 1.21 1.33 1.52 1.72 1.83 1.84 1.83 1.86 1.87 1.99 2.10 2.26 2.43 2.48 2.56 2.64 2.64 2.62 2.57 2.48
1.48 1.64 1.61 1.50 1.45 1.37 1.29 1.38 1.48 1.44 1.41 1.44 1.35 1.32 1.29 1.11 1.01 0.96 0.94 0.91 0.97 1.07 1.06 1.10 1.17 1.17 1.20 1.26 1.46 1.60 1.62 1.64 1.71 1.81 1.92 2.09 2.31 2.45 2.39 2.41 2.56 2.47 2.32 2.21
1.55 1.61 1.77 1.79 1.60 1.48 1.39 1.50 1.54 1.49 1.40 1.34 1.29 1.27 1.16 1.02 0.93 0.91 0.89 0.89 0.94 1.02 1.01 1.00 1.07 1.09 1.12 1.25 1.43 1.53 1.48 1.48 1.51 1.54 1.64 1.77 1.93 2.06 2.04 1.81 1.84 1.76 1.60 1.46
1.38 1.49 1.67 1.81 1.68 1.59 1.65 1.66 1.64 1.58 1.44 1.36 1.27 1.20 1.09 1.00 0.93 0.93 0.97 1.01 1.06 1.10 1.12 1.13 1.11 1.14 1.25 1.43 1.60 1.66 1.55 1.46 1.44 1.45 1.53 1.57 1.61 1.67 1.71 1.58 1.40 1.33 1.20 1.05
1.54 1.72 2.02 2.19 2.00 1.76 1.76 1.72 1.64 1.68 1.63 1.54 1.38 1.20 1.05 0.99 0.96 0.99 1.09 1.20 1.25 1.26 1.25 1.25 1.26 1.24 1.25 1.38 1.55 1.78 1.83 1.74 1.60 1.53 1.51 1.47 1.47 1.52 1.60 1.62 1.52 1.32 1.12 0.91
1.71 1.88 2.03 2.08 1.90 1.76 1.74 1.73 1.66 1.63 1.55 1.52 1.47 1.30 1.12 1.03 1.01 1.05 1.10 1.20 1.26 1.30 1.33 1.28 1.26 1.26 1.29 1.36 1.40 1.53 1.72 1.69 1.59 1.55 1.55 1.54 1.54 1.58 1.64 1.64 1.66 1.59 1.33 1.05
1.75 1.84 1.95 1.91 1.82 1.71 1.62 1.68 1.67 1.53 1.34 1.36 1.38 1.30 1.22 1.07 1.03 1.03 1.10 1.29 1.48 1.47 1.35 1.32 1.29 1.24 1.22 1.24 1.26 1.33 1.43 1.47 1.39 1.39 1.41 1.48 1.50 1.50 1.52 1.57 1.58 1.54 1.40 1.14
1.62 1.79 1.96 1.97 1.82 1.64 1.58 1.67 1.61 1.47 1.30 1.18 1.26 1.24 1.18 1.15 1.16 1.19 1.26 1.35 1.51 1.54 1.41 1.37 1.34 1.23 1.14 1.16 1.23 1.23 1.26 1.24 1.17 1.19 1.28 1.35 1.41 1.41 1.38 1.37 1.39 1.39 1.29 1.01
1.36 1.52 1.62 1.65 1.66 1.56 1.48 1.47 1.43 1.36 1.30 1.20 1.20 1.22 1.16 1.21 1.33 1.43 1.50 1.51 1.50 1.42 1.31 1.28 1.18 1.11 1.06 1.04 1.11 1.15 1.21 1.17 1.02 1.04 1.20 1.26 1.26 1.33 1.29 1.24 1.23 1.25 1.15 0.92
1.30 1.35 1.32 1.35 1.33 1.33 1.34 1.32 1.21 1.14 1.14 1.16 1.18 1.23 1.20 1.24 1.36 1.44 1.44 1.54 1.60 1.48 1.23 1.04 0.95 0.83 0.80 0.75 0.77 0.90 1.02 1.06 0.95 0.95 1.07 1.09 1.13 1.29 1.33 1.30 1.29 1.27 1.12 0.99
1.20 1.26 1.30 1.23 1.13 1.17 1.17 1.16 1.13 1.09 1.08 1.15 1.21 1.19 1.20 1.24 1.33 1.43 1.45 1.45 1.49 1.44 1.22 1.01 0.80 0.66 0.59 0.56 0.59 0.64 0.77 0.88 0.84 0.79 0.85 0.95 1.06 1.21 1.31 1.29 1.29 1.31 1.21 1.10
1.13 1.18 1.16 1.12 1.07 1.08 1.06 1.00 1.00 1.08 1.09 1.11 1.18 1.22 1.30 1.29 1.26 1.33 1.48 1.52 1.40 1.35 1.26 1.14 0.88 0.72 0.59 0.58 0.57 0.60 0.72 0.83 0.78 0.70 0.71 0.81 0.97 1.12 1.20 1.19 1.17 1.14 1.06 0.99
1.14 1.10 1.01 0.99 0.98 1.00 1.02 1.00 0.91 0.88 0.91 1.02 1.10 1.16 1.28 1.26 1.22 1.23 1.25 1.40 1.39 1.41 1.25 1.10 0.94 0.81 0.70 0.61 0.54 0.58 0.71 0.79 0.78 0.69 0.67 0.76 0.93 1.03 1.09 1.14 1.15 1.10 1.05 1.02
1.21 1.13 1.04 1.01 0.93 0.92 0.92 0.92 0.88 0.85 0.97 1.14 1.17 1.19 1.24 1.19 1.21 1.33 1.28 1.11 1.09 1.19 1.05 0.95 0.96 0.85 0.70 0.61 0.58 0.64 0.77 0.84 0.82 0.72 0.70 0.79 0.88 0.93 1.00 1.03 1.06 1.09 1.10 1.02
1.21 1.08 1.05 1.07 0.99 0.95 1.05 0.97 0.88 0.92 1.03 1.17 1.14 1.12 1.15 1.16 1.15 1.10 1.08 1.04 1.01 1.05 0.90 0.84 0.81 0.75 0.71 0.68 0.71 0.75 0.80 0.84 0.82 0.73 0.70 0.74 0.76 0.80 0.87 0.96 1.06 1.12 1.08 1.01
1.14 1.06 1.01 1.10 1.14 1.09 1.14 1.02 0.95 1.01 1.06 1.12 1.05 1.05 1.08 1.08 1.20 1.19 1.07 0.97 1.00 1.03 0.94 0.89 0.82 0.76 0.72 0.78 0.86 0.87 0.86 0.86 0.84 0.77 0.75 0.74 0.75 0.78 0.87 1.01 1.13 1.14 1.07 1.06
1.14 1.12 1.07 1.09 1.07 1.01 1.00 0.93 0.90 0.95 1.10 1.26 1.15 1.05 1.12 1.12 1.08 1.13 1.15 1.07 1.03 1.06 1.02 0.96 0.88 0.83 0.82 0.93 1.00 0.98 0.92 0.88 0.86 0.85 0.85 0.86 0.88 0.91 0.99 1.11 1.14 1.08 1.00 0.95
1.05 1.01 0.97 0.94 0.96 0.97 0.98 0.92 0.88 0.92 1.06 1.29 1.26 1.04 1.03 1.04 1.06 1.14 1.15 1.15 1.10 1.09 1.07 0.99 0.89 0.83 0.85 0.91 0.92 0.89 0.86 0.85 0.86 0.84 0.82 0.84 0.87 0.92 0.94 1.00 1.01 0.94 0.90 0.83